This demonstration page uses our WeatherBlox Daily Observations layout. Learn more.

Left ArrowRight Arrow

Hourly Observations for June 2, 2019

Temp ( °F °C ) Dew Point ( °F °C ) Humidity (%) Winds ( mph kmh ) Pressure ( in mb ) Visibility ( mi km ) Precip ( " mm )
12:53 am 00:53 Clear 66 18.9 62 16.7 87 87 N N/A 29.78 1009 10 16 N/A
1:53 am 01:53 Clear 67 19.4 63 17.2 87 87 N N/A 29.78 1009 10 16 N/A
2:53 am 02:53 Mostly Cloudy 68 20 62 16.7 81 81 WSW 5 7 29.77 1008 10 16 N/A
3:53 am 03:53 Mostly Clear 66 18.9 61 16.1 84 84 NW 9 15 29.79 1009 10 16 N/A
4:00 am 04:00 Partly Cloudy with Nearby Thunderstorms 67 19.4 62 16.7 84 84 W 5 7 29.79 1009 10 16 N/A
4:15 am 04:15 Mostly Clear 67 19.4 61 16.1 81 81 NW 3 6 29.78 1008 10 16 N/A
4:53 am 04:53 Mostly Clear 64 17.8 61 16.1 90 90 N N/A 29.77 1008 10 16 N/A
5:53 am 05:53 Partly Cloudy 61 16.1 59 15 93 93 N N/A 29.77 1008 9 14 N/A
6:53 am 06:53 Sunny 62 16.7 60 15.6 93 93 WNW 3 6 29.78 1008 10 16 N/A
7:53 am 07:53 Mostly Cloudy 66 18.9 63 17.2 90 90 N N/A 29.79 1009 10 16 N/A
8:53 am 08:53 Sunny 70 21.1 63 17.2 79 79 W 8 13 29.80 1009 10 16 N/A
9:53 am 09:53 Partly Cloudy 73 22.8 64 17.8 74 74 WNW 8 13 29.80 1009 10 16 N/A
10:53 am 10:53 Sunny 76 24.4 65 18.3 69 69 WNW 9 15 29.81 1010 10 16 N/A
11:53 am 11:53 Partly Cloudy 78 25.6 65 18.3 64 64 WNW 8 13 29.83 1010 10 16 N/A
12:53 pm 12:53 Mostly Sunny 78 25.6 61 16.1 56 56 NNW 13 20 29.83 1010 10 16 N/A
1:53 pm 13:53 Partly Cloudy 79 26.1 61 16.1 54 54 NW 14 22 29.84 1011 10 16 N/A
2:53 pm 14:53 Partly Cloudy 78 25.6 58 14.4 50 50 NW 15 24 29.84 1011 10 16 N/A
3:53 pm 15:53 Mostly Sunny 78 25.6 57 13.9 48 48 WNW 17 28 29.84 1011 10 16 N/A
4:53 pm 16:53 Sunny 77 25 53 11.7 43 43 NNW 14 22 29.86 1011 10 16 N/A
5:53 pm 17:53 Sunny 77 25 52 11.1 42 42 NNW 13 20 29.87 1012 10 16 N/A
6:53 pm 18:53 Mostly Sunny 74 23.3 51 10.6 45 45 NW 14 22 29.88 1012 10 16 N/A
7:53 pm 19:53 Sunny 72 22.2 52 11.1 50 50 NNW 10 17 29.90 1012 10 16 N/A
8:53 pm 20:53 Sunny 69 20.6 52 11.1 55 55 NW 10 17 29.91 1013 10 16 N/A
9:19 pm 21:19 Partly Cloudy 68 20 52 11.1 57 57 N 9 15 29.93 1013 10 16 N/A
9:53 pm 21:53 Clear 67 19.4 50 10 55 55 NNW 10 17 29.95 1014 10 16 N/A
10:53 pm 22:53 Clear 63 17.2 42 5.6 47 47 N 8 13 29.99 1016 10 16 N/A
11:53 pm 23:53 Clear 60 15.6 39 3.9 46 46 NNW 6 9 30.00 1016 10 16 N/A

Powered by AerisWeather